This is the latest recevied weather packets stored in our database for station/object WX2NJ-13. If no packets are shown the sender has not sent any weather packets the latest 10 day(s).
| Time | Temp. | Humidity | Pressure | Rain* | Wind** | Luminosity | Snow |
|---|---|---|---|---|---|---|---|
| 1778072004 | 19.44° C | 69% | 1011.6 hPa | 0 mm | 0.89 m/s, 153° | - | - |
| 1778071705 | 18.89° C | 70% | 1011.5 hPa | 0 mm | 2.68 m/s, 165° | - | - |
| 1778071406 | 18.89° C | 70% | 1011.5 hPa | 0 mm | 1.34 m/s, 186° | - | - |
| 1778071105 | 18.89° C | 70% | 1011.3 hPa | 0 mm | 1.34 m/s, 169° | - | - |
| 1778070806 | 18.89° C | 71% | 1011.5 hPa | 0 mm | 0.89 m/s, 145° | - | - |
| 1778070508 | 18.89° C | 71% | 1011.5 hPa | 0 mm | 0.89 m/s, 135° | - | - |
| 1778070206 | 18.33° C | 72% | 1011.6 hPa | 0 mm | 1.79 m/s, 153° | - | - |
| 1778069907 | 18.33° C | 73% | 1011.5 hPa | 0 mm | 1.34 m/s, 204° | - | - |
| 1778069609 | 18.33° C | 74% | 1011.6 hPa | 0 mm | 1.34 m/s, 125° | - | - |
| 1778069307 | 18.33° C | 74% | 1011.6 hPa | 0 mm | 1.79 m/s, 184° | - | - |
| 1778069009 | 18.33° C | 74% | 1011.5 hPa | 0 mm | 1.34 m/s, 236° | - | - |
| 1778068710 | 17.78° C | 74% | 1011.5 hPa | 0 mm | 1.34 m/s, 155° | - | - |
| 1778068408 | 17.78° C | 76% | 1011.6 hPa | 0 mm | 1.79 m/s, 188° | - | - |
| 1778068110 | 17.78° C | 76% | 1011.7 hPa | 0 mm | 0.89 m/s, 193° | - | - |
| 1778067811 | 17.22° C | 78% | 1011.7 hPa | 0 mm | 1.34 m/s, 229° | - | - |
| 1778067510 | 17.22° C | 79% | 1011.7 hPa | 0 mm | 1.34 m/s, 239° | - | - |
| 1778067211 | 17.22° C | 79% | 1011.8 hPa | 0 mm | 1.34 m/s, 204° | - | - |
| 1778066912 | 16.67° C | 79% | 1011.8 hPa | 0 mm | 1.34 m/s, 197° | - | - |
| 1778066611 | 16.67° C | 80% | 1011.8 hPa | 0 mm | 1.79 m/s, 339° | - | - |
| 1778066312 | 16.67° C | 80% | 1011.8 hPa | 0 mm | 0.89 m/s, 174° | - | - |
| 1778066014 | 16.67° C | 81% | 1011.9 hPa | 0 mm | 1.34 m/s, 176° | - | - |
| 1778065713 | 16.11° C | 82% | 1011.8 hPa | 0 mm | 0.45 m/s, 222° | - | - |
| 1778065414 | 16.11° C | 82% | 1011.8 hPa | 0 mm | 0.89 m/s, 146° | - | - |
| 1778065115 | 16.11° C | 82% | 1011.7 hPa | 0 mm | 0.45 m/s, 166° | - | - |
| 1778064814 | 16.11° C | 83% | 1011.6 hPa | 0 mm | 1.34 m/s, 162° | - | - |
* Rain latest hour (hover to see other rain measurements)
** Current wind speed in m/s (hover to see current wind gust speed)